CZ-3C DEB

Satellite information

Favourite Embed

Satellite Type and Status

DEBRISIN ORBIT

Key statistics

Satellite CZ-3C DEB at a glance.

Uptime

5523

Days in orbit

Revolutions

≈ 2.2

Per day

Orbit

GTO

Geostationary Transfer Orbit

Inclination

19.8

Latest

Satellite identification and parameters

Extended collection of information and parameters for CZ-3C DEB.

Object identification

Identified? True

Debris? True

Object name: CZ-3C DEB

International designator: 2010-057Q

Object number (NORAD): 39350

Object ID (CCSDS): 39350

Country: PEOPLES REPUBLIC OF CHINA (PRC)

Current information (Y/N): Y

RCS size: MEDIUM

Orbital parameters

Period: 646.046 minutes

Inclination: 19.7696 deg

SMA: 24755.353 km

Apoapsis: 36277.822 km

Periapsis: 476.614 km

RAAN: 111.9269 deg

Eccentricy: 0.72310034

Argument of periapsis: 144.3081 deg

Mean anomaly: 2.084 deg

Mean motion: 2.2289436 rev/day

Mean motion (dot): 0.00000626 rev/day2

B* drag term: 0.0038246273 1/REarth

Two-line elements (TLE)

Creation date: Dec. 7, 2025, 5:20 p.m.

Reference frame: TEME

Reference center: EARTH

Epoch: Dec. 7, 2025, 1:31 a.m. UTC

TLE line 0: 0 CZ-3C DEB

TLE line 1: 1 39350U 10057Q 25341.06356101 .00000626 00000-0 38246-2 0 9999

TLE line 2: 2 39350 19.7696 111.9269 7231003 144.3081 2.0840 2.22894360 95684

Live tracking on map

Real-time ground track for satellite CZ-3C DEB.

In-orbit conjunctions

A list of the most updated potential collisions computed for object CZ-3C DEB.

Target Orbit TCA Probability of collision Miss distance Type
COSMOS 2022 (GLONASS) MEO 2024-08-29 00:08:44 TBA 4201.0 (m) PAYLOAD

Associated space launch

CZ-3C DEB was lifted into orbit during the mission ‘Long March 3C | Compass-G4’, on board a Long March 3 space rocket.

The launch took place on Oct. 31, 2010, 4:26 p.m. from Launch Complex 2 (LC-2).

For more information about the launch, click the button.

Launch to space Long March 3C | Compass-G4
Long March 3C | Compass-G4

Agency: N/A

Status: Launch Successful

Launch date: Oct. 31, 2010, 4:26 p.m. UTC

Rocket: Long March 3

Launch pad: Launch Complex 2 (LC-2)

Location: Xichang Satellite Launch Center, People's Republic of China

...

Latest news about this satellite

There are no fresh news available about this satellite. Check back as we update our databases every day.


Newsletter sign-up

Weekly statistics, charts and insights to help you stay on top of the space industry.